| time (UTC) | temp C | wind direction | speed KPH | gust KPH | rain 1hr cm | rain 24hr cm | rain mn cm | humidity % | barometer mb |
| 20260906040225 | 25 | 32 | 0.0 | 0.0 | 0.00 | 0.00 | 0.00 | 99 | 1028.9 |
| 20260906035721 | 25 | 22 | 0.0 | 0.0 | 0.00 | 0.00 | 0.00 | 99 | 1028.8 |
| 20260906035216 | 25 | 29 | 0.0 | 0.0 | 0.00 | 0.00 | 0.00 | 99 | 1028.7 |
| 20260906034716 | 25 | 31 | 0.0 | 0.0 | 0.00 | 0.00 | 0.00 | 99 | 1028.8 |
| 20260906034211 | 25 | 18 | 0.0 | 0.0 | 0.00 | 0.00 | 0.00 | 99 | 1028.7 |
| 20260906033707 | 25 | 19 | 0.0 | 0.0 | 0.00 | 0.00 | 0.00 | 99 | 1028.6 |
| 20260906033201 | 25 | 16 | 0.0 | 0.0 | 0.00 | 0.00 | 0.00 | 99 | 1028.9 |
| 20260906032658 | 25 | 17 | 0.0 | 0.0 | 0.00 | 0.00 | 0.00 | 99 | 1028.9 |
| 20260906032158 | 25 | 27 | 0.0 | 0.0 | 0.00 | 0.00 | 0.00 | 98 | 1028.6 |
| 20260906031653 | 25 | 25 | 0.0 | 0.0 | 0.00 | 0.00 | 0.00 | 98 | 1028.6 |
| 20260906031148 | 25 | 25 | 0.0 | 0.0 | 0.00 | 0.00 | 0.00 | 98 | 1028.6 |
| 20260906030647 | 26 | 16 | 0.0 | 0.0 | 0.00 | 0.00 | 0.00 | 97 | 1028.8 |
| 20260906030143 | 26 | 22 | 0.0 | 0.0 | 0.00 | 0.00 | 0.00 | 97 | 1028.6 |
| 20260906025642 | 26 | 26 | 0.0 | 0.0 | 0.00 | 0.00 | 0.00 | 97 | 1028.6 |
| 20260906025142 | 26 | 26 | 0.0 | 0.0 | 0.00 | 0.00 | 0.00 | 97 | 1028.6 |
| 20260906024637 | 26 | 47 | 0.0 | 0.0 | 0.00 | 0.00 | 0.00 | 97 | 1028.5 |
| 20260906024136 | 26 | 19 | 0.0 | 0.0 | 0.00 | 0.00 | 0.00 | 96 | 1028.5 |
| 20260906023632 | 26 | 5 | 0.0 | 0.0 | 0.00 | 0.00 | 0.00 | 96 | 1028.4 |
| 20260906023133 | 26 | 5 | 0.0 | 0.0 | 0.00 | 0.00 | 0.00 | 96 | 1028.4 |
| 20260906022633 | 26 | 15 | 0.0 | 0.0 | 0.00 | 0.00 | 0.00 | 96 | 1028.3 |
| 20260906022129 | 26 | 5 | 0.0 | 0.0 | 0.00 | 0.00 | 0.00 | 95 | 1028.5 |
| 20260906021624 | 26 | 18 | 0.0 | 0.0 | 0.00 | 0.00 | 0.00 | 94 | 1028.2 |
| 20260906021123 | 26 | 26 | 0.0 | 0.0 | 0.00 | 0.00 | 0.00 | 94 | 1028.3 |
| 20260906020623 | 26 | 23 | 0.0 | 0.0 | 0.00 | 0.00 | 0.00 | 94 | 1028.1 |
| 20260906020118 | 27 | 24 | 0.0 | 0.0 | 0.00 | 0.00 | 0.00 | 94 | 1027.9 |
| 20260906015612 | 27 | 23 | 0.0 | 0.0 | 0.00 | 0.00 | 0.00 | 93 | 1028.1 |
| 20260906015111 | 27 | 26 | 0.0 | 0.0 | 0.00 | 0.00 | 0.00 | 93 | 1027.9 |
| 20260906014606 | 27 | 26 | 0.0 | 0.0 | 0.00 | 0.00 | 0.00 | 92 | 1027.9 |
| 20260906014102 | 27 | 22 | 0.0 | 0.0 | 0.00 | 0.00 | 0.00 | 92 | 1028.0 |
| 20260906013557 | 27 | 28 | 0.0 | 0.0 | 0.00 | 0.00 | 0.00 | 92 | 1027.7 |
| 20260906013052 | 27 | 25 | 0.0 | 0.0 | 0.00 | 0.00 | 0.00 | 92 | 1027.7 |
| 20260906012547 | 27 | 26 | 0.0 | 0.0 | 0.00 | 0.00 | 0.00 | 92 | 1027.7 |
| 20260906012047 | 27 | 33 | 0.0 | 0.0 | 0.00 | 0.00 | 0.00 | 91 | 1027.7 |
| 20260906011543 | 27 | 58 | 0.0 | 0.0 | 0.00 | 0.00 | 0.00 | 91 | 1027.6 |
| 20260906011042 | 28 | 38 | 0.0 | 0.0 | 0.00 | 0.00 | 0.00 | 90 | 1027.5 |
| 20260906010538 | 28 | 35 | 0.0 | 0.0 | 0.00 | 0.00 | 0.00 | 89 | 1027.6 |
| 20260906010034 | 28 | 86 | 0.0 | 0.0 | 0.00 | 0.00 | 0.00 | 88 | 1027.9 |
| 20260906005533 | 28 | 23 | 0.0 | 0.0 | 0.00 | 0.00 | 0.00 | 86 | 1027.6 |
| 20260906005033 | 29 | 23 | 0.0 | 0.0 | 0.00 | 0.00 | 0.00 | 85 | 1027.4 |
| 20260906004532 | 29 | 34 | 0.0 | 0.0 | 0.00 | 0.00 | 0.00 | 85 | 1027.4 |
| 20260906004027 | 30 | 48 | 0.0 | 0.0 | 0.00 | 0.00 | 0.00 | 85 | 1027.3 |
| 20260906003523 | 30 | 44 | 0.0 | 0.0 | 0.00 | 0.00 | 0.00 | 84 | 1027.2 |
| 20260906003019 | 30 | 47 | 0.0 | 0.0 | 0.00 | 0.00 | 0.00 | 83 | 1027.3 |
| 20260906002519 | 31 | 58 | 0.0 | 0.0 | 0.00 | 0.00 | 0.00 | 81 | 1027.5 |
| 20260906002014 | 31 | 48 | 0.0 | 0.0 | 0.00 | 0.00 | 0.00 | 80 | 1027.2 |
| 20260906001509 | 32 | 62 | 0.0 | 0.0 | 0.00 | 0.00 | 0.00 | 78 | 1027.4 |
| 20260906001004 | 32 | 73 | 0.0 | 0.0 | 0.00 | 0.00 | 0.00 | 76 | 1027.5 |
| 20260906000500 | 32 | 52 | 0.0 | 0.0 | 0.00 | 0.00 | 0.00 | 74 | 1027.6 |
| 20260905235954 | 33 | 57 | 0.0 | 0.0 | 0.00 | 0.00 | 0.00 | 70 | 1027.5 |
| 20260905235454 | 33 | 56 | 0.0 | 0.0 | 0.00 | 0.00 | 0.00 | 67 | 1027.7 |
| 20260905234948 | 35 | 45 | 0.0 | 0.0 | 0.00 | 0.00 | 0.00 | 63 | 1027.6 |
| 20260905234439 | 35 | 45 | 0.0 | 0.0 | 0.00 | 0.00 | 0.00 | 60 | 1027.7 |
| 20260905233938 | 35 | 21 | 0.0 | 1.6 | 0.00 | 0.00 | 0.00 | 59 | 1027.7 |
| 20260905233434 | 35 | 37 | 0.0 | 0.0 | 0.00 | 0.00 | 0.00 | 58 | 1027.6 |
| 20260905232932 | 36 | 35 | 0.0 | 1.6 | 0.00 | 0.00 | 0.00 | 58 | 1027.9 |
| 20260905232429 | 36 | 32 | 0.0 | 0.0 | 0.00 | 0.00 | 0.00 | 57 | 1027.5 |
| 20260905231924 | 36 | 57 | 0.0 | 0.0 | 0.00 | 0.00 | 0.00 | 56 | 1027.6 |
| 20260905231420 | 36 | 31 | 3.2 | 4.8 | 0.00 | 0.00 | 0.00 | 55 | 1027.8 |
| 20260905230916 | 37 | 69 | 0.0 | 0.0 | 0.00 | 0.00 | 0.00 | 52 | 1027.6 |
| 20260905230415 | 37 | 40 | 1.6 | 3.2 | 0.00 | 0.00 | 0.00 | 52 | 1027.5 |
| 20260905225913 | 37 | 59 | 1.6 | 1.6 | 0.00 | 0.00 | 0.00 | 51 | 1027.5 |
| 20260905225409 | 37 | 37 | 1.6 | 1.6 | 0.00 | 0.00 | 0.00 | 51 | 1027.6 |
| 20260905224903 | 38 | 37 | 0.0 | 1.6 | 0.00 | 0.00 | 0.00 | 50 | 1027.4 |
| 20260905224359 | 37 | 43 | 0.0 | 0.0 | 0.00 | 0.00 | 0.00 | 51 | 1027.5 |
| 20260905223853 | 37 | 33 | 1.6 | 3.2 | 0.00 | 0.00 | 0.00 | 50 | 1027.5 |
| 20260905223352 | 37 | 27 | 3.2 | 3.2 | 0.00 | 0.00 | 0.00 | 50 | 1027.7 |
| 20260905222851 | 37 | 35 | 1.6 | 3.2 | 0.00 | 0.00 | 0.00 | 50 | 1027.7 |
| 20260905222350 | 38 | 53 | 3.2 | 3.2 | 0.00 | 0.00 | 0.00 | 49 | 1027.8 |
| 20260905221846 | 38 | 21 | 0.0 | 0.0 | 0.00 | 0.00 | 0.00 | 50 | 1027.5 |
| 20260905221343 | 38 | 35 | 0.0 | 1.6 | 0.00 | 0.00 | 0.00 | 50 | 1027.7 |
| 20260905220839 | 38 | 35 | 0.0 | 0.0 | 0.00 | 0.00 | 0.00 | 48 | 1027.7 |
| 20260905220335 | 37 | 65 | 0.0 | 0.0 | 0.00 | 0.00 | 0.00 | 48 | 1027.5 |
| 20260905215834 | 38 | 96 | 0.0 | 0.0 | 0.00 | 0.00 | 0.00 | 50 | 1027.7 |
| 20260905215330 | 38 | 8 | 3.2 | 3.2 | 0.00 | 0.00 | 0.00 | 47 | 1027.7 |
| 20260905214826 | 38 | 357 | 0.0 | 0.0 | 0.00 | 0.00 | 0.00 | 47 | 1027.5 |
| 20260905214321 | 38 | 22 | 3.2 | 4.8 | 0.00 | 0.00 | 0.00 | 48 | 1027.6 |
| 20260905213816 | 38 | 42 | 0.0 | 0.0 | 0.00 | 0.00 | 0.00 | 48 | 1027.7 |
| 20260905213312 | 38 | 353 | 1.6 | 3.2 | 0.00 | 0.00 | 0.00 | 48 | 1027.7 |
| 20260905212813 | 38 | 0 | 1.6 | 3.2 | 0.00 | 0.00 | 0.00 | 49 | 1027.7 |
| 20260905212313 | 38 | 40 | 1.6 | 1.6 | 0.00 | 0.00 | 0.00 | 49 | 1027.7 |
| 20260905211813 | 38 | 10 | 1.6 | 1.6 | 0.00 | 0.00 | 0.00 | 48 | 1027.7 |
| 20260905211308 | 38 | 75 | 0.0 | 0.0 | 0.00 | 0.00 | 0.00 | 50 | 1027.8 |
| 20260905210804 | 38 | 60 | 1.6 | 3.2 | 0.00 | 0.00 | 0.00 | 48 | 1027.9 |
| 20260905210304 | 38 | 2 | 0.0 | 1.6 | 0.00 | 0.00 | 0.00 | 50 | 1027.9 |
| 20260905205803 | 38 | 42 | 0.0 | 0.0 | 0.00 | 0.00 | 0.00 | 48 | 1028.1 |
| 20260905205258 | 38 | 54 | 4.8 | 4.8 | 0.00 | 0.00 | 0.00 | 48 | 1028.0 |
| 20260905204757 | 38 | 31 | 3.2 | 4.8 | 0.00 | 0.00 | 0.00 | 46 | 1028.0 |
| 20260905204253 | 38 | 28 | 3.2 | 4.8 | 0.00 | 0.00 | 0.00 | 47 | 1028.0 |
| 20260905203752 | 38 | 64 | 0.0 | 0.0 | 0.00 | 0.00 | 0.00 | 49 | 1028.1 |
| 20260905203248 | 38 | 17 | 0.0 | 0.0 | 0.00 | 0.00 | 0.00 | 50 | 1028.4 |
| 20260905202743 | 38 | 23 | 3.2 | 4.8 | 0.00 | 0.00 | 0.00 | 47 | 1028.3 |
| 20260905202238 | 38 | 14 | 0.0 | 0.0 | 0.00 | 0.00 | 0.00 | 48 | 1028.4 |
| 20260905201734 | 38 | 34 | 0.0 | 1.6 | 0.00 | 0.00 | 0.00 | 49 | 1028.4 |
| 20260905201229 | 39 | 301 | 0.0 | 0.0 | 0.00 | 0.00 | 0.00 | 47 | 1028.2 |
| 20260905200723 | 38 | 13 | 1.6 | 1.6 | 0.00 | 0.00 | 0.00 | 47 | 1028.5 |
| 20260905200219 | 38 | 29 | 1.6 | 1.6 | 0.00 | 0.00 | 0.00 | 48 | 1028.6 |
| 20260905195717 | 38 | 280 | 1.6 | 1.6 | 0.00 | 0.00 | 0.00 | 48 | 1028.7 |
| 20260905195212 | 38 | 345 | 3.2 | 8.0 | 0.00 | 0.00 | 0.00 | 49 | 1028.9 |
| 20260905194708 | 38 | 23 | 0.0 | 0.0 | 0.00 | 0.00 | 0.00 | 46 | 1029.0 |
| 20260905194207 | 38 | 321 | 0.0 | 0.0 | 0.00 | 0.00 | 0.00 | 52 | 1029.0 |
| 20260905193701 | 37 | 85 | 0.0 | 0.0 | 0.00 | 0.00 | 0.00 | 53 | 1029.1 |
| 20260905193157 | 38 | 269 | 0.0 | 1.6 | 0.00 | 0.00 | 0.00 | 48 | 1029.2 |
| 20260905192652 | 38 | 25 | 8.0 | 9.7 | 0.00 | 0.00 | 0.00 | 48 | 1029.3 |
| 20260905192149 | 38 | 85 | 3.2 | 4.8 | 0.00 | 0.00 | 0.00 | 48 | 1029.4 |
| 20260905191648 | 37 | 12 | 1.6 | 3.2 | 0.00 | 0.00 | 0.00 | 47 | 1029.4 |
| 20260905191146 | 37 | 45 | 0.0 | 0.0 | 0.00 | 0.00 | 0.00 | 51 | 1029.4 |
| 20260905190645 | 37 | 207 | 1.6 | 3.2 | 0.00 | 0.00 | 0.00 | 54 | 1029.7 |
| 20260905190144 | 37 | 51 | 0.0 | 0.0 | 0.00 | 0.00 | 0.00 | 51 | 1029.7 |
| 20260905185643 | 38 | 210 | 0.0 | 0.0 | 0.00 | 0.00 | 0.00 | 48 | 1029.9 |
| 20260905185138 | 38 | 243 | 0.0 | 1.6 | 0.00 | 0.00 | 0.00 | 48 | 1029.9 |
| 20260905184637 | 38 | 129 | 1.6 | 3.2 | 0.00 | 0.00 | 0.00 | 53 | 1029.9 |
| 20260905184137 | 37 | 71 | 0.0 | 1.6 | 0.00 | 0.00 | 0.00 | 50 | 1029.8 |
| 20260905183636 | 38 | 21 | 0.0 | 0.0 | 0.00 | 0.00 | 0.00 | 51 | 1029.7 |
| 20260905183131 | 37 | 25 | 0.0 | 0.0 | 0.00 | 0.00 | 0.00 | 49 | 1029.9 |
| 20260905182631 | 37 | 233 | 0.0 | 1.6 | 0.00 | 0.00 | 0.00 | 51 | 1030.3 |
| 20260905182131 | 37 | 54 | 0.0 | 1.6 | 0.00 | 0.00 | 0.00 | 50 | 1029.9 |
| 20260905181626 | 37 | 128 | 1.6 | 3.2 | 0.00 | 0.00 | 0.00 | 50 | 1030.0 |
| 20260905181125 | 37 | 219 | 1.6 | 1.6 | 0.00 | 0.00 | 0.00 | 53 | 1029.9 |
| 20260905180620 | 37 | 44 | 0.0 | 0.0 | 0.00 | 0.00 | 0.00 | 53 | 1030.0 |
| 20260905180115 | 36 | 66 | 0.0 | 1.6 | 0.00 | 0.00 | 0.00 | 53 | 1030.3 |
| 20260905175614 | 36 | 21 | 1.6 | 3.2 | 0.00 | 0.00 | 0.00 | 54 | 1030.5 |
| 20260905175109 | 36 | 33 | 1.6 | 3.2 | 0.00 | 0.00 | 0.00 | 56 | 1030.4 |
| 20260905174605 | 36 | 77 | 0.0 | 0.0 | 0.00 | 0.00 | 0.00 | 56 | 1030.4 |
| 20260905174100 | 35 | 44 | 0.0 | 0.0 | 0.00 | 0.00 | 0.00 | 59 | 1030.4 |
| 20260905173557 | 36 | 48 | 0.0 | 0.0 | 0.00 | 0.00 | 0.00 | 62 | 1030.4 |
| 20260905173052 | 36 | 64 | 0.0 | 0.0 | 0.00 | 0.00 | 0.00 | 58 | 1030.6 |
| 20260905172550 | 36 | 36 | 1.6 | 3.2 | 0.00 | 0.00 | 0.00 | 54 | 1030.4 |
| 20260905172046 | 37 | 341 | 0.0 | 0.0 | 0.00 | 0.00 | 0.00 | 58 | 1030.5 |
| 20260905171543 | 36 | 60 | 0.0 | 0.0 | 0.00 | 0.00 | 0.00 | 55 | 1030.8 |
| 20260905171038 | 37 | 59 | 0.0 | 0.0 | 0.00 | 0.00 | 0.00 | 53 | 1030.7 |
| 20260905170535 | 37 | 302 | 0.0 | 0.0 | 0.00 | 0.00 | 0.00 | 53 | 1030.8 |
| 20260905170029 | 36 | 286 | 0.0 | 0.0 | 0.00 | 0.00 | 0.00 | 53 | 1030.9 |
| 20260905165524 | 36 | 182 | 1.6 | 1.6 | 0.00 | 0.00 | 0.00 | 54 | 1030.8 |
| 20260905165014 | 36 | 244 | 1.6 | 3.2 | 0.00 | 0.00 | 0.00 | 53 | 1030.9 |
| 20260905164514 | 36 | 271 | 0.0 | 0.0 | 0.00 | 0.00 | 0.00 | 57 | 1031.0 |
| 20260905164008 | 36 | 51 | 0.0 | 0.0 | 0.00 | 0.00 | 0.00 | 58 | 1031.2 |
| 20260905163505 | 36 | 235 | 0.0 | 0.0 | 0.00 | 0.00 | 0.00 | 56 | 1031.2 |
| 20260905163000 | 36 | 195 | 1.6 | 3.2 | 0.00 | 0.00 | 0.00 | 55 | 1031.1 |
| 20260905162455 | 36 | 63 | 0.0 | 0.0 | 0.00 | 0.00 | 0.00 | 57 | 1031.4 |
| 20260905161950 | 36 | 108 | 0.0 | 0.0 | 0.00 | 0.00 | 0.00 | 56 | 1031.2 |
| 20260905161450 | 36 | 251 | 0.0 | 0.0 | 0.00 | 0.00 | 0.00 | 58 | 1031.2 |
| 20260905160948 | 36 | 225 | 0.0 | 0.0 | 0.00 | 0.00 | 0.00 | 57 | 1031.5 |
| 20260905160442 | 36 | 114 | 0.0 | 0.0 | 0.00 | 0.00 | 0.00 | 59 | 1031.0 |
| 20260905155941 | 36 | 208 | 0.0 | 0.0 | 0.00 | 0.00 | 0.00 | 59 | 1031.4 |
| 20260905155436 | 36 | 171 | 0.0 | 0.0 | 0.00 | 0.00 | 0.00 | 60 | 1031.3 |
| 20260905154935 | 35 | 183 | 0.0 | 0.0 | 0.00 | 0.00 | 0.00 | 60 | 1031.5 |
| 20260905154430 | 36 | 275 | 0.0 | 1.6 | 0.00 | 0.00 | 0.00 | 58 | 1031.6 |
| 20260905153926 | 35 | 15 | 0.0 | 0.0 | 0.00 | 0.00 | 0.00 | 58 | 1031.6 |
| 20260905153422 | 36 | 191 | 0.0 | 0.0 | 0.00 | 0.00 | 0.00 | 60 | 1031.6 |
| 20260905152922 | 36 | 109 | 0.0 | 0.0 | 0.00 | 0.00 | 0.00 | 60 | 1031.6 |
| 20260905152421 | 35 | 101 | 0.0 | 0.0 | 0.00 | 0.00 | 0.00 | 62 | 1031.5 |
| 20260905151916 | 36 | 117 | 0.0 | 0.0 | 0.00 | 0.00 | 0.00 | 61 | 1031.6 |
| 20260905151413 | 35 | 216 | 0.0 | 0.0 | 0.00 | 0.00 | 0.00 | 62 | 1031.6 |
| 20260905150912 | 35 | 222 | 0.0 | 0.0 | 0.00 | 0.00 | 0.00 | 66 | 1031.5 |
| 20260905150407 | 35 | 149 | 0.0 | 0.0 | 0.00 | 0.00 | 0.00 | 66 | 1031.5 |
| 20260905145904 | 35 | 185 | 0.0 | 0.0 | 0.00 | 0.00 | 0.00 | 65 | 1031.6 |
| 20260905145404 | 34 | 210 | 0.0 | 0.0 | 0.00 | 0.00 | 0.00 | 63 | 1031.5 |
| 20260905144903 | 34 | 196 | 0.0 | 0.0 | 0.00 | 0.00 | 0.00 | 67 | 1031.6 |
| 20260905144359 | 33 | 180 | 0.0 | 0.0 | 0.00 | 0.00 | 0.00 | 67 | 1031.5 |
| 20260905143857 | 32 | 98 | 0.0 | 0.0 | 0.00 | 0.00 | 0.00 | 70 | 1031.6 |
| 20260905143352 | 32 | 102 | 0.0 | 0.0 | 0.00 | 0.00 | 0.00 | 72 | 1031.5 |
| 20260905142851 | 33 | 343 | 0.0 | 0.0 | 0.00 | 0.00 | 0.00 | 71 | 1031.6 |
| 20260905142350 | 33 | 310 | 0.0 | 0.0 | 0.00 | 0.00 | 0.00 | 70 | 1031.4 |
| 20260905141846 | 32 | 305 | 0.0 | 0.0 | 0.00 | 0.00 | 0.00 | 72 | 1031.6 |
| 20260905141341 | 32 | 342 | 0.0 | 0.0 | 0.00 | 0.00 | 0.00 | 72 | 1031.5 |
| 20260905140837 | 32 | 332 | 0.0 | 0.0 | 0.00 | 0.00 | 0.00 | 74 | 1031.4 |
| 20260905140337 | 30 | 324 | 0.0 | 0.0 | 0.00 | 0.00 | 0.00 | 77 | 1031.4 |
| 20260905135836 | 30 | 304 | 0.0 | 0.0 | 0.00 | 0.00 | 0.00 | 77 | 1031.3 |
| 20260905135332 | 30 | 334 | 0.0 | 0.0 | 0.00 | 0.00 | 0.00 | 81 | 1031.6 |
| 20260905134828 | 29 | 335 | 0.0 | 0.0 | 0.00 | 0.00 | 0.00 | 83 | 1031.4 |
| 20260905134326 | 28 | 325 | 0.0 | 0.0 | 0.00 | 0.00 | 0.00 | 85 | 1031.5 |
| 20260905133826 | 27 | 351 | 0.0 | 0.0 | 0.00 | 0.00 | 0.00 | 89 | 1031.4 |
| 20260905133322 | 26 | 325 | 0.0 | 0.0 | 0.00 | 0.00 | 0.00 | 93 | 1031.3 |
| 20260905132820 | 26 | 331 | 0.0 | 0.0 | 0.00 | 0.00 | 0.00 | 98 | 1031.4 |
| 20260905132316 | 26 | 4 | 0.0 | 0.0 | 0.00 | 0.00 | 0.00 | 99 | 1031.1 |
| 20260905131810 | 25 | 2 | 0.0 | 0.0 | 0.00 | 0.00 | 0.00 | 99 | 1031.4 |
| 20260905131306 | 25 | 6 | 0.0 | 0.0 | 0.00 | 0.00 | 0.00 | 99 | 1031.3 |
| 20260905130801 | 24 | 0 | 0.0 | 0.0 | 0.00 | 0.00 | 0.00 | 99 | 1031.3 |
| 20260905130300 | 24 | 358 | 0.0 | 0.0 | 0.00 | 0.00 | 0.00 | 99 | 1031.2 |
| 20260905125755 | 23 | 338 | 0.0 | 0.0 | 0.00 | 0.00 | 0.00 | 99 | 1031.1 |
| 20260905125250 | 23 | 2 | 0.0 | 0.0 | 0.00 | 0.00 | 0.00 | 99 | 1031.1 |
| 20260905124747 | 23 | 6 | 0.0 | 0.0 | 0.00 | 0.00 | 0.00 | 99 | 1030.9 |
| 20260905124242 | 23 | 7 | 0.0 | 0.0 | 0.00 | 0.00 | 0.00 | 99 | 1031.0 |
| 20260905123737 | 23 | 7 | 0.0 | 0.0 | 0.00 | 0.00 | 0.00 | 99 | 1031.0 |
| 20260905123235 | 23 | 10 | 0.0 | 0.0 | 0.00 | 0.00 | 0.00 | 99 | 1031.0 |
| 20260905122734 | 22 | 8 | 0.0 | 0.0 | 0.00 | 0.00 | 0.00 | 99 | 1031.2 |
| 20260905122228 | 22 | 19 | 0.0 | 0.0 | 0.00 | 0.00 | 0.00 | 99 | 1031.0 |
| 20260905121723 | 22 | 2 | 0.0 | 0.0 | 0.00 | 0.00 | 0.00 | 99 | 1030.9 |
| 20260905121221 | 22 | 17 | 0.0 | 0.0 | 0.00 | 0.00 | 0.00 | 99 | 1031.1 |
| 20260905120719 | 22 | 8 | 0.0 | 0.0 | 0.00 | 0.00 | 0.00 | 99 | 1030.9 |
| 20260905120214 | 22 | 3 | 0.0 | 0.0 | 0.00 | 0.00 | 0.00 | 99 | 1030.9 |
| 20260905115713 | 22 | 1 | 0.0 | 0.0 | 0.00 | 0.00 | 0.00 | 99 | 1030.8 |
| 20260905115208 | 22 | 8 | 0.0 | 0.0 | 0.00 | 0.00 | 0.00 | 99 | 1030.7 |
| 20260905114708 | 22 | 7 | 0.0 | 0.0 | 0.00 | 0.00 | 0.00 | 99 | 1030.9 |
| 20260905114207 | 22 | 15 | 0.0 | 0.0 | 0.00 | 0.00 | 0.00 | 99 | 1030.8 |
| 20260905113706 | 22 | 28 | 0.0 | 0.0 | 0.00 | 0.00 | 0.00 | 99 | 1030.8 |
| 20260905113203 | 22 | 28 | 0.0 | 0.0 | 0.00 | 0.00 | 0.00 | 99 | 1030.9 |
| 20260905112702 | 22 | 28 | 0.0 | 0.0 | 0.00 | 0.00 | 0.00 | 99 | 1030.6 |
| 20260905112158 | 22 | 29 | 0.0 | 0.0 | 0.00 | 0.00 | 0.00 | 99 | 1030.7 |
| 20260905111657 | 22 | 66 | 0.0 | 0.0 | 0.00 | 0.00 | 0.00 | 99 | 1030.6 |
| 20260905111157 | 22 | 19 | 0.0 | 0.0 | 0.00 | 0.00 | 0.00 | 99 | 1030.8 |
| 20260905110656 | 22 | 23 | 0.0 | 0.0 | 0.00 | 0.00 | 0.00 | 99 | 1030.6 |
| 20260905110151 | 22 | 7 | 0.0 | 0.0 | 0.00 | 0.00 | 0.00 | 99 | 1030.7 |
| 20260905105647 | 22 | 17 | 0.0 | 0.0 | 0.00 | 0.00 | 0.00 | 99 | 1030.4 |
| 20260905105145 | 22 | 7 | 0.0 | 0.0 | 0.00 | 0.00 | 0.00 | 99 | 1030.3 |
| 20260905104640 | 22 | 2 | 0.0 | 0.0 | 0.00 | 0.00 | 0.00 | 99 | 1030.4 |
| 20260905104136 | 22 | 28 | 0.0 | 0.0 | 0.00 | 0.00 | 0.00 | 99 | 1030.3 |
| 20260905103631 | 22 | 54 | 0.0 | 0.0 | 0.00 | 0.00 | 0.00 | 99 | 1030.4 |
| 20260905103127 | 22 | 23 | 0.0 | 0.0 | 0.00 | 0.00 | 0.00 | 99 | 1030.3 |
| 20260905102623 | 22 | 3 | 0.0 | 0.0 | 0.00 | 0.00 | 0.00 | 99 | 1030.6 |
| 20260905102119 | 22 | 18 | 0.0 | 0.0 | 0.00 | 0.00 | 0.00 | 99 | 1030.5 |
| 20260905101617 | 22 | 19 | 0.0 | 0.0 | 0.00 | 0.00 | 0.00 | 99 | 1030.7 |
| 20260905101116 | 22 | 19 | 0.0 | 0.0 | 0.00 | 0.00 | 0.00 | 99 | 1030.3 |
| 20260905100612 | 22 | 19 | 0.0 | 0.0 | 0.00 | 0.00 | 0.00 | 99 | 1030.5 |
| 20260905100107 | 22 | 23 | 0.0 | 0.0 | 0.00 | 0.00 | 0.00 | 99 | 1030.4 |
| 20260905095601 | 22 | 24 | 0.0 | 0.0 | 0.00 | 0.00 | 0.00 | 99 | 1030.3 |
| 20260905095056 | 22 | 20 | 0.0 | 0.0 | 0.00 | 0.00 | 0.00 | 99 | 1030.3 |
| 20260905094551 | 22 | 20 | 0.0 | 0.0 | 0.00 | 0.00 | 0.00 | 99 | 1030.5 |
| 20260905094050 | 22 | 20 | 0.0 | 0.0 | 0.00 | 0.00 | 0.00 | 99 | 1030.2 |
| 20260905093545 | 22 | 20 | 0.0 | 0.0 | 0.00 | 0.00 | 0.00 | 99 | 1030.5 |
| 20260905093042 | 22 | 21 | 0.0 | 0.0 | 0.00 | 0.00 | 0.00 | 99 | 1030.4 |
| 20260905092541 | 22 | 11 | 0.0 | 0.0 | 0.00 | 0.00 | 0.00 | 99 | 1030.5 |
| 20260905092038 | 22 | 12 | 0.0 | 0.0 | 0.00 | 0.00 | 0.00 | 99 | 1030.2 |
| 20260905091536 | 22 | 12 | 0.0 | 0.0 | 0.00 | 0.00 | 0.00 | 99 | 1030.3 |
| 20260905091031 | 22 | 13 | 0.0 | 0.0 | 0.00 | 0.00 | 0.00 | 99 | 1030.3 |
| 20260905090525 | 22 | 10 | 0.0 | 0.0 | 0.00 | 0.00 | 0.00 | 99 | 1030.2 |
| 20260905090021 | 22 | 32 | 0.0 | 0.0 | 0.00 | 0.00 | 0.00 | 99 | 1030.2 |
| 20260905085518 | 22 | 34 | 0.0 | 0.0 | 0.00 | 0.00 | 0.00 | 99 | 1030.2 |
| 20260905085015 | 22 | 35 | 0.0 | 0.0 | 0.00 | 0.00 | 0.00 | 99 | 1030.2 |
| 20260905084515 | 23 | 27 | 0.0 | 0.0 | 0.00 | 0.00 | 0.00 | 99 | 1030.4 |
| 20260905084015 | 23 | 3 | 0.0 | 0.0 | 0.00 | 0.00 | 0.00 | 99 | 1030.4 |
| 20260905083510 | 22 | 16 | 0.0 | 0.0 | 0.00 | 0.00 | 0.00 | 99 | 1030.2 |
| 20260905083006 | 22 | 17 | 0.0 | 0.0 | 0.00 | 0.00 | 0.00 | 99 | 1030.4 |
| 20260905082501 | 22 | 17 | 0.0 | 0.0 | 0.00 | 0.00 | 0.00 | 99 | 1030.6 |
| 20260905081956 | 23 | 37 | 0.0 | 0.0 | 0.00 | 0.00 | 0.00 | 99 | 1030.2 |
| 20260905081451 | 23 | 22 | 0.0 | 0.0 | 0.00 | 0.00 | 0.00 | 99 | 1030.5 |
| 20260905080951 | 23 | 8 | 0.0 | 0.0 | 0.00 | 0.00 | 0.00 | 99 | 1030.4 |
| 20260905080445 | 23 | 27 | 0.0 | 0.0 | 0.00 | 0.00 | 0.00 | 99 | 1030.4 |
| 20260905075944 | 23 | 348 | 0.0 | 0.0 | 0.00 | 0.00 | 0.00 | 99 | 1030.2 |
| 20260905075439 | 23 | 19 | 0.0 | 0.0 | 0.00 | 0.00 | 0.00 | 99 | 1030.2 |
| 20260905074938 | 23 | 15 | 0.0 | 0.0 | 0.00 | 0.00 | 0.00 | 99 | 1030.0 |
| 20260905074434 | 23 | 14 | 0.0 | 0.0 | 0.00 | 0.00 | 0.00 | 99 | 1030.3 |
| 20260905073929 | 23 | 15 | 0.0 | 0.0 | 0.00 | 0.00 | 0.00 | 99 | 1030.2 |
| 20260905073424 | 23 | 12 | 0.0 | 0.0 | 0.00 | 0.00 | 0.00 | 99 | 1030.3 |
| 20260905072919 | 22 | 8 | 0.0 | 0.0 | 0.00 | 0.00 | 0.00 | 99 | 1030.4 |
| 20260905072414 | 23 | 15 | 0.0 | 0.0 | 0.00 | 0.00 | 0.00 | 99 | 1030.3 |
| 20260905071910 | 23 | 17 | 0.0 | 0.0 | 0.00 | 0.00 | 0.00 | 99 | 1030.4 |
| 20260905071402 | 23 | 15 | 0.0 | 0.0 | 0.00 | 0.00 | 0.00 | 99 | 1030.3 |
| 20260905070900 | 23 | 17 | 0.0 | 0.0 | 0.00 | 0.00 | 0.00 | 99 | 1030.3 |
| 20260905070357 | 23 | 9 | 0.0 | 0.0 | 0.00 | 0.00 | 0.00 | 99 | 1030.5 |
| 20260905065857 | 23 | 20 | 0.0 | 0.0 | 0.00 | 0.00 | 0.00 | 99 | 1030.5 |
| 20260905065355 | 23 | 23 | 0.0 | 0.0 | 0.00 | 0.00 | 0.00 | 99 | 1030.4 |
| 20260905064850 | 23 | 16 | 0.0 | 0.0 | 0.00 | 0.00 | 0.00 | 99 | 1030.3 |
| 20260905064345 | 23 | 22 | 0.0 | 0.0 | 0.00 | 0.00 | 0.00 | 99 | 1030.6 |
| 20260905063844 | 23 | 42 | 0.0 | 0.0 | 0.00 | 0.00 | 0.00 | 99 | 1030.5 |
| 20260905063340 | 23 | 23 | 0.0 | 0.0 | 0.00 | 0.00 | 0.00 | 99 | 1030.4 |
| 20260905062836 | 23 | 20 | 0.0 | 0.0 | 0.00 | 0.00 | 0.00 | 99 | 1030.5 |
| 20260905062330 | 23 | 18 | 0.0 | 0.0 | 0.00 | 0.00 | 0.00 | 99 | 1030.4 |
| 20260905061825 | 23 | 14 | 0.0 | 0.0 | 0.00 | 0.00 | 0.00 | 99 | 1030.6 |
| 20260905061319 | 23 | 17 | 0.0 | 0.0 | 0.00 | 0.00 | 0.00 | 99 | 1030.7 |
| 20260905060814 | 23 | 14 | 0.0 | 0.0 | 0.00 | 0.00 | 0.00 | 99 | 1030.6 |
| 20260905060311 | 23 | 12 | 0.0 | 0.0 | 0.00 | 0.00 | 0.00 | 99 | 1030.6 |
| 20260905055809 | 23 | 11 | 0.0 | 0.0 | 0.00 | 0.00 | 0.00 | 99 | 1030.4 |
| 20260905055259 | 23 | 16 | 0.0 | 0.0 | 0.00 | 0.00 | 0.00 | 99 | 1030.6 |
| 20260905054759 | 23 | 43 | 0.0 | 0.0 | 0.00 | 0.00 | 0.00 | 99 | 1030.8 |
| 20260905054255 | 23 | 25 | 0.0 | 0.0 | 0.00 | 0.00 | 0.00 | 99 | 1030.5 |
| 20260905053754 | 23 | 15 | 0.0 | 0.0 | 0.00 | 0.00 | 0.00 | 99 | 1030.7 |
| 20260905053245 | 23 | 17 | 0.0 | 0.0 | 0.00 | 0.00 | 0.00 | 99 | 1030.9 |
| 20260905052743 | 23 | 22 | 0.0 | 0.0 | 0.00 | 0.00 | 0.00 | 99 | 1030.7 |
| 20260905052238 | 23 | 21 | 0.0 | 0.0 | 0.00 | 0.00 | 0.00 | 99 | 1030.8 |
| 20260905051738 | 23 | 26 | 0.0 | 0.0 | 0.00 | 0.00 | 0.00 | 99 | 1030.7 |
| 20260905051235 | 24 | 64 | 0.0 | 1.6 | 0.00 | 0.00 | 0.00 | 99 | 1030.6 |
| 20260905050731 | 24 | 32 | 0.0 | 0.0 | 0.00 | 0.00 | 0.00 | 99 | 1030.8 |
| 20260905050227 | 24 | 24 | 0.0 | 0.0 | 0.00 | 0.00 | 0.00 | 99 | 1030.7 |
| 20260905045727 | 24 | 17 | 0.0 | 0.0 | 0.00 | 0.00 | 0.00 | 99 | 1030.7 |
| 20260905045222 | 24 | 354 | 0.0 | 0.0 | 0.00 | 0.00 | 0.00 | 99 | 1030.7 |
| 20260905044717 | 24 | 5 | 0.0 | 0.0 | 0.00 | 0.00 | 0.00 | 99 | 1031.0 |
| 20260905044213 | 24 | 19 | 0.0 | 0.0 | 0.00 | 0.00 | 0.00 | 99 | 1030.8 |
| 20260905043711 | 24 | 15 | 0.0 | 0.0 | 0.00 | 0.00 | 0.00 | 99 | 1030.6 |
| 20260905043206 | 24 | 21 | 0.0 | 0.0 | 0.00 | 0.00 | 0.00 | 99 | 1031.0 |
| 20260905042701 | 24 | 10 | 0.0 | 0.0 | 0.00 | 0.00 | 0.00 | 99 | 1031.1 |
| 20260905042200 | 24 | 26 | 0.0 | 0.0 | 0.00 | 0.00 | 0.00 | 99 | 1030.9 |
| 20260905041656 | 24 | 24 | 0.0 | 0.0 | 0.00 | 0.00 | 0.00 | 99 | 1031.0 |
| 20260905041151 | 24 | 17 | 0.0 | 0.0 | 0.00 | 0.00 | 0.00 | 99 | 1030.8 |
| 20260905040646 | 24 | 9 | 0.0 | 0.0 | 0.00 | 0.00 | 0.00 | 99 | 1030.7 |